JQ1YUX-13 Tokyo Ota-ku JP current weather conditions

sailwx.info

Air temperature 2.2° C
Dewpoint 1.4° C

Last reported at 2018-Feb-22 01:02 UTC.
Time now 2018-Feb-22 01:21 UTC

Location: N 35°35' E 139°40'.
View on Google Maps.

See reports from other nearby stations

  
Tides and Currents Weather Stations Pressure Air Temp Water Temp Dewpoint Dewpoint Depression Visibility Wind Speed Wind Dir Waves Ship Positions
date/time (UTC)wind fromknots sea level pressurealtimeterstation pressurevisibilityair tempwater tempwave heightnotes
2018-Feb-22 01:02 2.2
2018-Feb-22 00:32 010 2.2
2018-Feb-22 00:02 036 2.2
2018-Feb-21 23:32 030 2.2
2018-Feb-21 23:02 028 2.2
2018-Feb-21 22:32 024 2.8
2018-Feb-21 22:02 032 2.8
2018-Feb-21 21:32 029 2.8
2018-Feb-21 21:02 027 2.8
2018-Feb-21 20:32 028 2.8
2018-Feb-21 20:02 349 2.8
2018-Feb-21 19:32 051 3.9
2018-Feb-21 19:02 040 3.9
2018-Feb-21 18:32 041 3.9
2018-Feb-21 18:02 044 3.9
2018-Feb-21 17:32 036 4.4
2018-Feb-21 17:02 030 4.4
2018-Feb-21 16:32 346 5.6
2018-Feb-21 16:02 051 5.6
2018-Feb-21 15:32 017 5.6
2018-Feb-21 15:02 042 5.6
2018-Feb-21 14:32 040 5.6
2018-Feb-21 14:02 333 5.6
2018-Feb-21 13:32 333 5.6
2018-Feb-21 13:02 331 6.1
2018-Feb-21 12:32 327 6.1
2018-Feb-21 12:02 327 6.1
2018-Feb-21 11:32 327 6.1
2018-Feb-21 11:02 327 6.1
2018-Feb-21 10:32 327 6.7
2018-Feb-21 10:02 327 7.2
2018-Feb-21 09:32 329 7.2
2018-Feb-21 09:02 329 7.2
2018-Feb-21 08:32 347 7.8
2018-Feb-21 08:02 347 8.3
2018-Feb-21 07:32 349 8.9
2018-Feb-21 07:02 193 8.3
2018-Feb-21 06:32 195 8.3
2018-Feb-21 06:02 184 8.3
2018-Feb-21 05:32 182 8.3
2018-Feb-21 05:02 198 8.3
2018-Feb-21 04:32 338 8.9
2018-Feb-21 04:02 212 7.8
2018-Feb-21 03:32 344 7.8
2018-Feb-21 03:02 022 7.2
2018-Feb-21 02:32 032 6.7
2018-Feb-21 02:02 037 6.7
2018-Feb-21 01:32 021 6.1
2018-Feb-21 01:02 019 5.6
2018-Feb-21 00:32 343 5.6
2018-Feb-21 00:02 355 5.6
2018-Feb-20 23:32 026 5.0
2018-Feb-20 23:02 039 5.0
2018-Feb-20 22:32 355 5.0
2018-Feb-20 22:02 044 4.4
2018-Feb-20 21:32 034 5.0
2018-Feb-20 21:02 029 5.0
2018-Feb-20 20:32 351 5.0
2018-Feb-20 20:02 350 5.0
2018-Feb-20 19:32 346 5.6
2018-Feb-20 19:02 005 5.6
2018-Feb-20 18:32 345 5.6
2018-Feb-20 18:02 302 5.6
2018-Feb-20 17:32 325 5.6
2018-Feb-20 17:02 5.6
2018-Feb-20 16:32 313 5.6
2018-Feb-20 16:02 341 5.6
2018-Feb-20 15:32 355 6.1
2018-Feb-20 15:02 276 6.7
2018-Feb-20 14:32 268 6.7
2018-Feb-20 14:02 150 7.8
2018-Feb-20 13:32 150 8.3
2018-Feb-20 13:02 150 8.3
2018-Feb-20 12:32 150 8.3
2018-Feb-20 12:02 150 8.9
2018-Feb-20 11:32 150 8.9
2018-Feb-20 11:02 153 8.3
2018-Feb-20 10:32 153 8.9
2018-Feb-20 10:02 180 9.4
2018-Feb-20 09:32 184 9.4
2018-Feb-20 09:02 178 10.0
2018-Feb-20 08:32 198 10.0
2018-Feb-20 08:02 186 11.1
2018-Feb-20 07:32 169 11.7
2018-Feb-20 07:02 202 12.2
2018-Feb-20 06:32 209 12.8
2018-Feb-20 06:02 190 12.2
2018-Feb-20 05:32 355 12.2
2018-Feb-20 05:02 347 12.8
2018-Feb-20 04:32 291 12.8
2018-Feb-20 04:02 288 12.2
2018-Feb-20 03:32 022 11.7
2018-Feb-20 03:02 033 11.1
2018-Feb-20 02:32 028 10.6
2018-Feb-20 02:02 029 10.0
2018-Feb-20 01:32 038 8.9
2018-Feb-20 01:02 355 8.3